Topeka, KS

10:10 PM CST on February 12, 2016 (GMT -0600)
Billard Municipal

Weather History for KTOP - December, 2012

Change the Weather History Date:

Wednesday, December 12, 2012

  Actual Average Record
Temperature  
Mean Temperature 40 °F 32 °F  
Max Temperature 52 °F 42 °F 74 °F (1889)
Min Temperature 28 °F 23 °F -7 °F (1932)
Degree Days  
Heating Degree Days 25 33  
Month to date heating degree days 262 370  
Since 1 July heating degree days 1149 1364  
Cooling Degree Days 0 0  
Month to date cooling degree days 0 0  
Year to date cooling degree days 1978 1422  
Moisture  
Dew Point 14 °F    
Average Humidity 40    
Maximum Humidity 58    
Minimum Humidity 21    
Precipitation  
Precipitation 0.00 in 0.04 in 1.55 in (1946)
Month to date precipitation 0.01 0.61  
Year to date precipitation 22.28 35.72  
Snow  
Snow 0.00 in 0.20 in 3.70 in (1914)
Month to date snowfall 0.0 1.8  
Year to date snowfall 3.0 14.4  
Since 1 July snowfall 0.0 3.1  
Snow Depth 0.00 in    
Sea Level Pressure  
Sea Level Pressure 30.13 in    
Wind  
Wind Speed 11 mph (South)    
Max Wind Speed 23 mph    
Max Gust Speed 31 mph    
Visibility 10 miles    
Events      
T = Trace of Precipitation, MM = Missing Value Source: NWS Daily Summary

Daily Weather History Graph

Daily Weather History Graph

Search for Another Location

Airport or City:

Trip Planner

Search our weather history database for the weather conditions in past years. The results will help you decide how hot, cold, wet, or windy it might be!

Date:

Astronomy

Dec. 12, 2012 Rise Set
Actual Time 7:32 AM CST 5:00 PM CST
Civil Twilight 7:02 AM CST 5:30 PM CST
Nautical Twilight 6:29 AM CST 6:03 PM CST
Astronomical Twilight 5:56 AM CST 6:36 PM CST
Moon 6:38 AM CST (12/12) 4:38 PM CST (12/12)
Length of Visible Light 10h 27m
Length of Day
9h 27m
Waning Crescent, 1% of the Moon is Illuminated
Dec 12
Waning Crescent
Dec 13
New
Dec 19
First Quarter
Dec 28
Full
Jan 4
Last Quarter

Hourly Weather History & Observations

Time (CST) Temp. Windchill Dew Point Humidity Pressure Visibility Wind Dir Wind Speed Gust Speed Precip Events Conditions
12:53 AM 30.0 °F 22.4 °F 15.1 °F 54% 30.13 in 10.0 mi SSW 8.1 mph - N/A   Clear
1:53 AM 32.0 °F 24.8 °F 15.1 °F 50% 30.12 in 10.0 mi South 8.1 mph - N/A   Clear
2:53 AM 30.9 °F 23.5 °F 15.1 °F 52% 30.13 in 10.0 mi South 8.1 mph - N/A   Clear
3:53 AM 30.9 °F 23.5 °F 16.0 °F 54% 30.13 in 10.0 mi South 8.1 mph - N/A   Clear
4:53 AM 28.9 °F - 15.1 °F 56% 30.14 in 10.0 mi Calm Calm - N/A   Clear
5:53 AM 30.0 °F 23.2 °F 15.1 °F 54% 30.14 in 10.0 mi South 6.9 mph - N/A   Clear
6:53 AM 30.9 °F 24.3 °F 16.0 °F 54% 30.15 in 10.0 mi South 6.9 mph - N/A   Clear
7:53 AM 30.9 °F 23.5 °F 16.0 °F 54% 30.16 in 10.0 mi South 8.1 mph - N/A   Clear
8:53 AM 35.1 °F 28.6 °F 17.1 °F 48% 30.18 in 10.0 mi SSW 8.1 mph - N/A   Clear
9:53 AM 39.0 °F 31.0 °F 16.0 °F 39% 30.19 in 10.0 mi SSW 13.8 mph 21.9 mph N/A   Clear
10:53 AM 44.6 °F 38.1 °F 15.8 °F 31% 30.17 in 10.0 mi SSW 13.8 mph 24.2 mph N/A   Clear
11:53 AM 48.0 °F - 15.1 °F 27% 30.17 in 10.0 mi South 17.3 mph 23.0 mph N/A   Clear
12:53 PM 50.0 °F - 14.0 °F 24% 30.13 in 10.0 mi South 19.6 mph 27.6 mph N/A   Clear
1:53 PM 52.0 °F - 12.0 °F 20% 30.12 in 10.0 mi SSW 17.3 mph 26.5 mph N/A   Clear
2:53 PM 52.0 °F - 12.9 °F 21% 30.11 in 10.0 mi South 16.1 mph 25.3 mph N/A   Clear
3:53 PM 50.0 °F - 12.9 °F 23% 30.10 in 10.0 mi South 13.8 mph 24.2 mph N/A   Clear
4:53 PM 46.9 °F - 12.0 °F 24% 30.10 in 10.0 mi SSE 11.5 mph 21.9 mph N/A   Clear
5:53 PM 45.0 °F 38.2 °F 12.0 °F 26% 30.09 in 10.0 mi SSE 15.0 mph - N/A   Clear
6:53 PM 42.1 °F 36.1 °F 12.0 °F 29% 30.10 in 10.0 mi SSE 10.4 mph - N/A   Clear
7:53 PM 41.0 °F 35.2 °F 12.9 °F 32% 30.10 in 10.0 mi SSE 9.2 mph - N/A   Clear
8:53 PM 42.1 °F 37.1 °F 14.0 °F 32% 30.13 in 10.0 mi South 8.1 mph - N/A   Clear
9:53 PM 41.0 °F 35.2 °F 14.0 °F 33% 30.13 in 10.0 mi South 9.2 mph - N/A   Clear
10:53 PM 39.9 °F 32.9 °F 12.9 °F 33% 30.12 in 10.0 mi South 11.5 mph - N/A   Clear
11:53 PM 44.1 °F 37.1 °F 10.9 °F 26% 30.11 in 10.0 mi South 15.0 mph 23.0 mph N/A   Clear